Regional Weather Roundup
Issued by NWS

Home | Current Version | Previous Version | Text Only | Print | Product List | Glossary Off
Versions: 1 2 3 4 5 6 7 8 9 10 11 12 13 14 15 16 17 18 19 20 21 22 23 24 25 26 27 28 29 30 31 32 33 34 35 36 37 38 39 40 41 42 43 44 45 46 47 48 49 50

000
ASUS45 KSLC 220110
RWRUT

UTAH REGIONAL WEATHER ROUNDUP
NATIONAL WEATHER SERVICE SALT LAKE CITY UT
600 PM MST SUN DEC 21 2014

UTZ001>011-023>025-220200-

NORTHERN UTAH

CITY           SKY/WX    TMP DP  RH WIND       PRES   REMARKS
BRIGHAM CITY   CLOUDY    46  39  75 N21       29.94R
HILL AFB       CLOUDY    46  42  86 W16       29.93R
LOGAN          CLOUDY    45  38  76 NW10      29.92R
OGDEN          CLOUDY    48  41  76 W12       29.92R
PROVO AIRPORT  CLOUDY    41  37  87 VRB5      29.96S
SALT LAKE CITY CLOUDY    43  40  89 SE8       29.93R
VERNAL         CLOUDY    33  28  81 CALM      29.81F
WENDOVER       PTCLDY    54  37  54 W18       29.96R
HEBER CITY     MIX PCPN  36  36 100 W3        29.90R
WEST JORDAN    CLOUDY    41  41 100 E3        29.93F

$$

UTZ012>022-026-027-220200-

SOUTHERN/CENTRAL UTAH

CITY           SKY/WX    TMP DP  RH WIND       PRES   REMARKS
BLANDING       PTCLDY    33  32  93 CALM      30.04R
BRYCE CANYON   MOCLDY    40  31  70 N6        30.08S
CEDAR CITY     MOCLDY    48  34  58 SE6       30.05F
DELTA          CLOUDY    42  38  84 CALM      29.97S
MILFORD        CLOUDY    51  36  56 S15       29.98F
MOAB/CYNLANDS  CLEAR     37  33  85 CALM      29.93F
PRICE          CLOUDY    33  29  85 CALM      29.92S
ST GEORGE      CLOUDY    50  36  57 CALM      30.07F
KANAB          MOCLDY    39  36  87 E3        30.09R

$$

REGIONAL REPORTS     COLORADO/ARIZONA

CITY           SKY/WX    TMP DP  RH WIND       PRES   REMARKS
CRAIG, CO      CLOUDY    38  31  76 SW25      29.73S WCI  27
GRAND JUNCTION CLOUDY    34  32  92 CALM      29.92F
RIFLE          CLOUDY    36  30  79 W14       29.85S WCI  27
MONTROSE       CLOUDY    33  31  92 N3        29.93S
CORTEZ         CLOUDY    37  30  75 NE6       29.98F WCI  32
PAGE, AZ       CLOUDY    44  31  60 CALM      30.02R
GRAND CANYON   CLOUDY    36  31  82 SW3       30.10F
KINGMAN        MOCLDY    43  36  76 N3        30.09R
FLAGSTAFF      CLOUDY    44  31  60 W6        30.10R

$$

REGIONAL REPORTS    NEVADA/IDAHO/WYOMING

CITY           SKY/WX    TMP DP  RH WIND       PRES   REMARKS
LAS VEGAS, NV  CLOUDY    53  38  56 S7        30.04R
ELY            CLOUDY    47  38  71 NW5       30.13R
ELKO           LGT RAIN  46  43  89 W14       30.07S
POCATELLO, ID  CLEAR     40  37  89 W15       29.92R WCI  32
BURLEY         MOCLDY    40  36  86 W16G30    29.96R WCI  31
EVANSTON, WY   LGT RAIN  35  34  96 W16       29.86R WCI  25
ROCK SPRINGS   CLOUDY    36  31  82 W36G51    29.72S WCI  22
KEMMERER       LGT SNOW  34  32  93 W30       29.81R WCI  20

$$



USA.gov is the U.S. government's official web portal to all federal, state and local government web resources and services.